EST,Max TemperatureF,Mean TemperatureF,Min TemperatureF,Max Dew PointF,MeanDew PointF,Min DewpointF,Max Humidity, Mean Humidity, Min Humidity, Max Sea Level PressureIn, Mean Sea Level PressureIn, Min Sea Level PressureIn, Max VisibilityMiles, Mean VisibilityMiles, Min VisibilityMiles, Max Wind SpeedMPH, Mean Wind SpeedMPH, Max Gust SpeedMPH,PrecipitationIn, CloudCover, Events, WindDirDegrees
2013-1-1,31,20,8,30,20,7,100,87,74,30.16,30.06,29.98,10,8,2,14,6,17,0.00,6,,292
2013-1-2,22,15,7,13,10,7,92,80,68,30.25,30.20,30.12,10,10,6,12,5,16,0.00,1,,248
2013-1-3,28,17,6,21,14,3,92,74,55,30.25,30.19,30.11,10,9,6,20,11,29,0.00,5,,228
2013-1-4,27,25,22,20,16,14,81,69,57,30.28,30.23,30.18,10,10,10,26,16,38,0.00,3,,233
2013-1-5,34,25,16,25,20,15,92,79,66,30.37,30.26,30.14,10,9,5,18,10,24,0.00,3,,206
2013-1-6,35,31,26,32,28,24,96,83,69,30.29,30.08,29.98,10,7,2,17,12,25,0.01,8,,235
2013-1-7,33,29,25,25,24,22,92,78,64,30.47,30.35,30.24,9,6,2,20,10,23,0.00,5,,208
2013-1-8,41,32,23,28,24,19,82,66,50,30.33,30.28,30.23,10,10,7,17,10,22,0.00,0,,186
2013-1-9,45,40,34,36,31,26,79,68,57,30.50,30.29,30.18,10,10,5,24,13,36,0.04,2,Rain,222
2013-1-10,41,34,26,30,27,25,100,77,54,30.59,30.46,30.20,10,10,6,17,8,21,0.00,2,,123
2013-1-11,58,49,40,52,45,28,100,79,57,30.16,29.97,29.87,10,9,2,26,14,33,0.55,6,Rain,178
2013-1-12,61,55,48,61,53,46,100,90,80,30.03,29.96,29.84,10,9,2,18,11,23,0.11,3,Rain,185
2013-1-13,63,50,37,61,52,36,100,92,84,30.03,29.85,29.74,10,8,2,33,14,41,0.35,7,Rain,223
2013-1-14,37,31,24,36,22,18,100,87,74,30.43,30.30,30.04,10,9,2,15,7,26,T,8,Snow,306
2013-1-15,31,28,24,22,20,17,88,76,63,30.42,30.32,30.12,10,10,10,15,7,25,0.00,5,,22
2013-1-16,33,30,26,25,23,19,92,76,59,30.09,29.99,29.89,10,9,4,20,8,26,0.00,3,,238
2013-1-17,37,29,20,28,24,11,85,74,63,30.32,30.16,30.04,10,10,7,18,9,26,0.00,5,,275
2013-1-18,36,26,15,20,14,8,88,66,43,30.49,30.36,30.14,10,10,10,30,14,44,0.00,1,,213
2013-1-19,49,42,35,28,24,19,56,49,42,30.12,29.98,29.76,10,10,10,33,22,47,0.00,0,,205
2013-1-20,44,32,19,32,16,10,73,63,53,30.20,30.03,29.74,10,10,4,31,14,46,T,5,Snow,268
2013-1-21,19,13,7,16,8,-3,92,78,63,30.15,30.01,29.93,10,5,0,21,10,28,0.04,7,Fog-Snow,256
2013-1-22,11,7,2,2,-2,-5,79,71,63,30.32,30.24,30.09,10,7,2,20,9,26,0.01,5,Snow,254
2013-1-23,16,9,1,12,4,-3,88,71,53,30.32,30.20,30.02,10,8,2,15,6,21,T,7,Snow,225
2013-1-24,21,15,9,13,9,4,91,71,51,30.58,30.31,30.02,10,6,1,20,8,26,0.04,6,Snow,323
2013-1-25,20,17,13,18,11,5,91,76,61,30.49,30.15,29.97,10,7,0,14,8,16,0.17,8,Fog-Snow,179
2013-1-26,26,19,11,20,17,9,92,76,60,30.47,30.21,30.03,10,7,2,15,6,18,T,7,Snow,263
2013-1-27,31,20,8,25,16,6,92,75,58,30.52,30.42,30.21,10,9,6,16,8,20,0.05,3,Rain,142
2013-1-28,49,40,31,48,41,29,100,89,78,30.19,30.04,29.95,9,4,0,29,15,39,0.35,8,Fog-Rain,197
2013-1-29,60,54,48,56,52,48,100,88,75,30.04,29.89,29.62,10,6,1,30,17,38,0.08,7,Rain,193
2013-1-30,62,47,32,55,46,30,100,86,72,29.58,29.35,29.22,10,7,0,32,20,40,0.72,7,Fog-Rain-Snow,213
2013-1-31,33,24,15,27,16,5,89,78,67,29.92,29.69,29.36,10,5,1,32,17,41,0.06,8,Snow,252